EZY34HR LEPA-LFPO

Flight info

Callsign EZY34HR
Flight time 1h 32m
Altitude 38000
Route GALAT5R GALAT N861 OLOXO DCT OKABI DCT TOU DCT DIBAG/N0414F340 DCT TUDRA/N0375F280 DCT BEVOL UT158 AMB AMB9E
Aircraft A320/M-SDGRWY/L

Departure

Time 2026-05-07 14:24
Airport Palma de Mallorca Airport (LEPA)

Arrival

Time 2026-05-07 15:56
Airport Paris-Orly Airport (LFPO)
Time Latitude Longitude Altitude Speed Heading
2026-05-07 14:03 39.54205 2.72739 42 ft 0 kts 153°
2026-05-07 14:09 39.54212 2.72735 42 ft 4 kts 147°
2026-05-07 14:09 39.54227 2.72713 39 ft 4 kts 98°
2026-05-07 14:09 39.54225 2.72686 40 ft 2 kts 60°
2026-05-07 14:10 39.54221 2.72681 41 ft 3 kts 61°
2026-05-07 14:10 39.54220 2.72677 41 ft 0 kts 58°
2026-05-07 14:20 39.54224 2.72686 40 ft 5 kts 58°
2026-05-07 14:20 39.54258 2.72756 42 ft 11 kts 57°
2026-05-07 14:20 39.54267 2.72823 42 ft 6 kts 129°
2026-05-07 14:21 39.54212 2.72891 43 ft 11 kts 107°
2026-05-07 14:21 39.54244 2.72981 42 ft 13 kts 56°
2026-05-07 14:21 39.54294 2.73081 42 ft 9 kts 58°
2026-05-07 14:21 39.54307 2.73166 42 ft 10 kts 116°
2026-05-07 14:22 39.54284 2.73240 42 ft 5 kts 96°
2026-05-07 14:22 39.54283 2.73241 42 ft 0 kts 96°
2026-05-07 14:23 39.54283 2.73246 42 ft 3 kts 96°
2026-05-07 14:23 39.54277 2.73339 41 ft 13 kts 94°
2026-05-07 14:23 39.54271 2.73474 39 ft 16 kts 87°
2026-05-07 14:24 39.54322 2.73596 37 ft 39 kts 59°
2026-05-07 14:24 39.54661 2.74313 38 ft 148 kts 58°
2026-05-07 14:24 39.55313 2.75649 414 ft 196 kts 57°
2026-05-07 14:24 39.56147 2.77318 792 ft 252 kts 58°
2026-05-07 14:25 39.57148 2.79442 1458 ft 296 kts 60°
2026-05-07 14:25 39.58249 2.81791 2883 ft 308 kts 60°
2026-05-07 14:25 39.59398 2.84235 4326 ft 324 kts 60°
2026-05-07 14:25 39.60566 2.86708 6240 ft 320 kts 59°
2026-05-07 14:26 39.61716 2.89137 8018 ft 323 kts 59°
2026-05-07 14:26 39.63133 2.91514 9252 ft 348 kts 43°
2026-05-07 14:26 39.65318 2.93144 10155 ft 380 kts 20°
2026-05-07 14:26 39.68014 2.93636 11021 ft 405 kts 358°
2026-05-07 14:27 39.70799 2.92819 12134 ft 420 kts 337°
2026-05-07 14:27 39.73257 2.90769 13651 ft 421 kts 317°
2026-05-07 14:27 39.75103 2.87813 14782 ft 426 kts 298°
2026-05-07 14:27 39.76160 2.84251 15728 ft 411 kts 280°
2026-05-07 14:28 39.76298 2.80580 16347 ft 406 kts 261°
2026-05-07 14:28 39.75541 2.77297 16830 ft 361 kts 239°
2026-05-07 14:28 39.74035 2.74935 17332 ft 339 kts 216°
2026-05-07 14:28 39.71935 2.73638 17860 ft 335 kts 195°
2026-05-07 14:29 39.69714 2.72710 18362 ft 338 kts 206°
2026-05-07 14:29 39.67902 2.70770 18837 ft 343 kts 230°
2026-05-07 14:29 39.66873 2.67967 19319 ft 351 kts 253°
2026-05-07 14:29 39.66723 2.64781 19809 ft 359 kts 273°
2026-05-07 14:30 39.67281 2.61908 20254 ft 367 kts 288°
2026-05-07 14:30 39.68533 2.58988 20754 ft 373 kts 300°
2026-05-07 14:30 39.69887 2.56491 21197 ft 376 kts 302°
2026-05-07 14:30 39.71310 2.53923 21690 ft 379 kts 302°
2026-05-07 14:31 39.72417 2.51908 22068 ft 380 kts 301°
2026-05-07 14:31 39.73879 2.49215 22575 ft 383 kts 301°
2026-05-07 14:31 39.75396 2.46392 23111 ft 385 kts 301°
2026-05-07 14:31 39.76376 2.44558 23461 ft 387 kts 300°
2026-05-07 14:32 39.77283 2.42856 23739 ft 389 kts 300°
2026-05-07 14:32 39.78739 2.40123 24200 ft 390 kts 299°
2026-05-07 14:32 39.79886 2.37968 24544 ft 390 kts 299°
2026-05-07 14:32 39.81396 2.35134 25000 ft 391 kts 299°
2026-05-07 14:33 39.82922 2.32529 25441 ft 398 kts 306°
2026-05-07 14:33 39.84901 2.29977 25929 ft 405 kts 311°
2026-05-07 14:33 39.86993 2.27510 26447 ft 408 kts 311°
2026-05-07 14:33 39.88747 2.25470 26874 ft 411 kts 311°
2026-05-07 14:34 39.90343 2.23613 27261 ft 414 kts 310°
2026-05-07 14:34 39.92408 2.21204 27767 ft 417 kts 310°
2026-05-07 14:34 39.94469 2.18794 28273 ft 421 kts 310°
2026-05-07 14:34 39.96564 2.16338 28799 ft 424 kts 310°
2026-05-07 14:35 39.98764 2.13754 29350 ft 428 kts 310°
2026-05-07 14:35 40.00991 2.11136 29918 ft 432 kts 309°
2026-05-07 14:35 40.03192 2.08546 30434 ft 435 kts 309°
2026-05-07 14:35 40.05418 2.05926 30903 ft 435 kts 309°
2026-05-07 14:36 40.07569 2.03393 31395 ft 434 kts 309°
2026-05-07 14:36 40.09526 2.01086 31830 ft 434 kts 309°
2026-05-07 14:36 40.11774 1.98462 32345 ft 435 kts 310°
2026-05-07 14:36 40.14168 1.96145 32856 ft 445 kts 320°
2026-05-07 14:37 40.16969 1.94334 33392 ft 457 kts 332°
2026-05-07 14:37 40.22787 1.92533 34342 ft 467 kts 344°
2026-05-07 14:37 40.25495 1.92002 34760 ft 467 kts 346°
2026-05-07 14:38 40.28437 1.91505 35201 ft 466 kts 347°
2026-05-07 14:38 40.31310 1.91049 35639 ft 463 kts 347°
2026-05-07 14:38 40.34355 1.90563 36144 ft 459 kts 347°
2026-05-07 14:38 40.37349 1.90069 36631 ft 455 kts 347°
2026-05-07 14:39 40.40311 1.89561 37124 ft 452 kts 347°
2026-05-07 14:39 40.43201 1.89050 37622 ft 448 kts 347°
2026-05-07 14:39 40.45217 1.88686 37889 ft 447 kts 347°
2026-05-07 14:39 40.49117 1.87974 38017 ft 443 kts 346°
2026-05-07 14:40 40.53623 1.87142 38019 ft 443 kts 346°
2026-05-07 14:40 40.57736 1.86381 38005 ft 443 kts 346°
2026-05-07 14:41 40.62808 1.85445 38004 ft 443 kts 347°
2026-05-07 14:41 40.68681 1.84363 38021 ft 443 kts 347°
2026-05-07 14:42 40.74668 1.83260 38010 ft 443 kts 347°
2026-05-07 14:42 40.79838 1.82305 38006 ft 443 kts 347°
2026-05-07 14:43 40.83167 1.81690 38014 ft 443 kts 346°
2026-05-07 14:43 40.88015 1.80793 38011 ft 442 kts 346°
2026-05-07 14:44 40.92172 1.80022 38016 ft 443 kts 346°
2026-05-07 14:44 40.98045 1.78931 38015 ft 444 kts 346°
2026-05-07 14:45 41.04158 1.77795 38018 ft 444 kts 346°
2026-05-07 14:45 41.10278 1.76655 38020 ft 444 kts 346°
2026-05-07 14:46 41.16393 1.75513 38029 ft 444 kts 346°
2026-05-07 14:46 41.22507 1.74369 38029 ft 444 kts 346°
2026-05-07 14:47 41.28639 1.73220 38031 ft 444 kts 346°
2026-05-07 14:47 41.34762 1.72071 38046 ft 444 kts 346°
2026-05-07 14:48 41.40879 1.70920 38031 ft 445 kts 346°
2026-05-07 14:48 41.47008 1.69765 38025 ft 444 kts 346°
2026-05-07 14:49 41.53061 1.68622 38028 ft 445 kts 346°
2026-05-07 14:49 41.59179 1.67466 38021 ft 444 kts 346°
2026-05-07 14:50 41.65299 1.66306 38022 ft 447 kts 346°
2026-05-07 14:50 41.71571 1.65104 38012 ft 456 kts 346°
2026-05-07 14:51 41.77755 1.63939 38014 ft 445 kts 346°
2026-05-07 14:51 41.83854 1.62781 38003 ft 441 kts 346°
2026-05-07 14:52 41.89927 1.61620 38003 ft 440 kts 346°
2026-05-07 14:52 41.95997 1.60456 38003 ft 440 kts 346°
2026-05-07 14:53 42.02064 1.59291 38007 ft 440 kts 346°
2026-05-07 14:53 42.08084 1.58133 37998 ft 439 kts 346°
2026-05-07 14:54 42.14141 1.56972 38001 ft 440 kts 346°
2026-05-07 14:54 42.20191 1.55802 37993 ft 438 kts 347°
2026-05-07 14:55 42.26234 1.54629 37995 ft 438 kts 347°
2026-05-07 14:55 42.32273 1.53459 38001 ft 439 kts 347°
2026-05-07 14:56 42.38329 1.52299 37996 ft 438 kts 347°
2026-05-07 14:56 42.44363 1.51141 37996 ft 439 kts 348°
2026-05-07 14:57 42.50361 1.50133 38000 ft 440 kts 349°
2026-05-07 14:57 42.56393 1.49182 38008 ft 440 kts 349°
2026-05-07 14:58 42.62479 1.48218 38016 ft 440 kts 349°
2026-05-07 14:58 42.68394 1.47273 38021 ft 440 kts 349°
2026-05-07 14:59 42.73923 1.46384 38022 ft 440 kts 349°
2026-05-07 14:59 42.79164 1.45541 38032 ft 440 kts 349°
2026-05-07 15:00 42.85035 1.44592 38025 ft 439 kts 348°
2026-05-07 15:00 42.91102 1.43609 38033 ft 439 kts 348°
2026-05-07 15:01 42.97179 1.42625 38025 ft 439 kts 348°
2026-05-07 15:01 43.03245 1.41639 38032 ft 438 kts 349°
2026-05-07 15:02 43.09277 1.40658 38025 ft 436 kts 349°
2026-05-07 15:02 43.14432 1.39818 38023 ft 436 kts 349°
2026-05-07 15:03 43.20453 1.38834 38021 ft 436 kts 349°
2026-05-07 15:03 43.25034 1.38084 38021 ft 435 kts 349°
2026-05-07 15:04 43.30845 1.37133 37779 ft 432 kts 349°
2026-05-07 15:04 43.33811 1.36646 36950 ft 438 kts 349°
2026-05-07 15:04 43.36518 1.36199 36480 ft 439 kts 349°
2026-05-07 15:05 43.39388 1.35727 36257 ft 437 kts 349°
2026-05-07 15:05 43.41655 1.35354 36095 ft 436 kts 348°
2026-05-07 15:05 43.46963 1.34481 36023 ft 435 kts 349°
2026-05-07 15:06 43.52553 1.33559 36025 ft 433 kts 349°
2026-05-07 15:06 43.58535 1.32569 36028 ft 433 kts 349°
2026-05-07 15:07 43.64516 1.31576 36024 ft 433 kts 349°
2026-05-07 15:07 43.70472 1.30487 36073 ft 431 kts 347°
2026-05-07 15:08 43.73427 1.29807 36419 ft 430 kts 346°
2026-05-07 15:08 43.76377 1.29086 36806 ft 430 kts 346°
2026-05-07 15:08 43.79323 1.28353 37202 ft 430 kts 346°
2026-05-07 15:08 43.82268 1.27621 37599 ft 429 kts 346°
2026-05-07 15:09 43.85207 1.26897 37961 ft 430 kts 346°
2026-05-07 15:09 43.88153 1.26178 38025 ft 430 kts 346°
2026-05-07 15:09 43.94017 1.24761 38025 ft 430 kts 346°
2026-05-07 15:10 43.99921 1.23340 38026 ft 430 kts 346°
2026-05-07 15:10 44.05817 1.21917 38031 ft 430 kts 346°
2026-05-07 15:11 44.11707 1.20492 38023 ft 429 kts 346°
2026-05-07 15:11 44.17586 1.19066 38022 ft 429 kts 346°
2026-05-07 15:12 44.23404 1.17652 38030 ft 429 kts 346°
2026-05-07 15:12 44.28966 1.16297 38026 ft 429 kts 346°
2026-05-07 15:13 44.34839 1.14864 38025 ft 429 kts 346°
2026-05-07 15:13 44.40722 1.13425 38027 ft 429 kts 346°
2026-05-07 15:14 44.46603 1.11985 38026 ft 428 kts 346°
2026-05-07 15:14 44.52472 1.10544 38026 ft 428 kts 346°
2026-05-07 15:15 44.58322 1.09104 38023 ft 428 kts 346°
2026-05-07 15:15 44.64211 1.07652 38031 ft 428 kts 346°
2026-05-07 15:16 44.70069 1.06206 38025 ft 427 kts 346°
2026-05-07 15:16 44.75927 1.04756 38028 ft 427 kts 346°
2026-05-07 15:17 44.81789 1.03301 38025 ft 427 kts 346°
2026-05-07 15:17 44.87600 1.01857 38025 ft 427 kts 346°
2026-05-07 15:18 44.93391 1.00416 38028 ft 427 kts 346°
2026-05-07 15:18 44.99246 0.98953 37557 ft 430 kts 346°
2026-05-07 15:19 45.02217 0.98218 36560 ft 439 kts 346°
2026-05-07 15:19 45.05258 0.97478 35800 ft 444 kts 347°
2026-05-07 15:19 45.08279 0.96730 35481 ft 435 kts 346°
2026-05-07 15:19 45.11229 0.95988 35529 ft 426 kts 346°
2026-05-07 15:20 45.14143 0.95248 35909 ft 425 kts 346°
2026-05-07 15:20 45.17060 0.94505 36390 ft 424 kts 346°
2026-05-07 15:20 45.19964 0.93767 36891 ft 423 kts 346°
2026-05-07 15:20 45.22850 0.93036 37386 ft 421 kts 346°
2026-05-07 15:21 45.25695 0.92317 37857 ft 420 kts 346°
2026-05-07 15:21 45.28426 0.91625 38017 ft 425 kts 346°
2026-05-07 15:21 45.34250 0.90150 38023 ft 425 kts 346°
2026-05-07 15:22 45.40076 0.88676 38027 ft 425 kts 346°
2026-05-07 15:22 45.45900 0.87199 38028 ft 425 kts 346°
2026-05-07 15:23 45.51732 0.85716 38028 ft 425 kts 346°
2026-05-07 15:23 45.57550 0.84234 38032 ft 425 kts 346°
2026-05-07 15:24 45.63370 0.82748 38027 ft 424 kts 346°
2026-05-07 15:24 45.69178 0.81261 38036 ft 424 kts 346°
2026-05-07 15:25 45.74984 0.79772 38026 ft 424 kts 346°
2026-05-07 15:25 45.80862 0.78817 38025 ft 427 kts 354°
2026-05-07 15:26 45.86799 0.78631 38035 ft 428 kts 356°
2026-05-07 15:26 45.92724 0.78590 38027 ft 428 kts 356°
2026-05-07 15:27 45.98693 0.78565 38038 ft 428 kts 356°
2026-05-07 15:27 46.04640 0.78526 38026 ft 427 kts 356°
2026-05-07 15:28 46.10589 0.78474 38029 ft 427 kts 356°
2026-05-07 15:28 46.16538 0.78420 38029 ft 427 kts 356°
2026-05-07 15:29 46.22480 0.78367 38028 ft 427 kts 356°
2026-05-07 15:29 46.28427 0.78313 38028 ft 426 kts 356°
2026-05-07 15:30 46.34322 0.78260 38034 ft 426 kts 356°
2026-05-07 15:30 46.40258 0.78207 38035 ft 426 kts 356°
2026-05-07 15:31 46.46192 0.78153 38032 ft 426 kts 356°
2026-05-07 15:31 46.52134 0.78129 38034 ft 427 kts 359°
2026-05-07 15:32 46.57064 0.79120 38053 ft 430 kts
2026-05-07 15:32 46.62704 0.80782 38037 ft 431 kts
2026-05-07 15:33 46.68221 0.82548 38038 ft 430 kts
2026-05-07 15:33 46.73781 0.84340 38040 ft 430 kts
2026-05-07 15:34 46.79190 0.86069 38039 ft 430 kts
2026-05-07 15:34 46.85044 0.87930 38044 ft 430 kts
2026-05-07 15:35 46.90858 0.89779 38046 ft 430 kts
2026-05-07 15:35 46.96284 0.91509 38044 ft 430 kts
2026-05-07 15:36 47.01588 0.93204 38042 ft 430 kts
2026-05-07 15:36 47.06925 0.94903 38045 ft 429 kts
2026-05-07 15:37 47.12775 0.96768 38045 ft 429 kts
2026-05-07 15:37 47.18581 0.98624 38065 ft 429 kts
2026-05-07 15:38 47.24373 1.00479 38050 ft 429 kts
2026-05-07 15:38 47.30205 1.02352 38052 ft 429 kts
2026-05-07 15:39 47.36047 1.04232 38054 ft 429 kts
2026-05-07 15:39 47.41861 1.06120 38059 ft 429 kts 11°
2026-05-07 15:40 47.47561 1.08798 38067 ft 430 kts 17°
2026-05-07 15:40 47.50386 1.10253 37915 ft 430 kts 17°
2026-05-07 15:40 47.53171 1.11679 37465 ft 429 kts 17°
2026-05-07 15:41 47.56000 1.13119 36977 ft 430 kts 17°
2026-05-07 15:41 47.58832 1.14559 36442 ft 431 kts 17°
2026-05-07 15:41 47.61663 1.15999 35864 ft 430 kts 17°
2026-05-07 15:41 47.64495 1.17440 35292 ft 430 kts 17°
2026-05-07 15:42 47.67324 1.18881 34735 ft 429 kts 16°
2026-05-07 15:42 47.70148 1.20321 34188 ft 428 kts 16°
2026-05-07 15:42 47.72948 1.21750 33589 ft 428 kts 17°
2026-05-07 15:42 47.75708 1.23160 32897 ft 429 kts 17°
2026-05-07 15:43 47.78559 1.24618 32146 ft 430 kts 17°
2026-05-07 15:43 47.81385 1.26065 31465 ft 430 kts 17°
2026-05-07 15:43 47.84216 1.27517 30777 ft 429 kts 17°
2026-05-07 15:43 47.87029 1.28962 30115 ft 428 kts 17°
2026-05-07 15:44 47.89844 1.30408 29357 ft 427 kts 17°
2026-05-07 15:44 47.92655 1.31855 28590 ft 426 kts 17°
2026-05-07 15:44 47.95276 1.33205 27899 ft 424 kts 17°
2026-05-07 15:44 47.97825 1.34519 27241 ft 423 kts 17°
2026-05-07 15:45 48.00159 1.35724 26652 ft 421 kts 17°
2026-05-07 15:45 48.02893 1.37137 25984 ft 419 kts 17°
2026-05-07 15:45 48.05626 1.38646 25245 ft 421 kts 24°
2026-05-07 15:45 48.08154 1.40869 24454 ft 423 kts 31°
2026-05-07 15:46 48.13036 1.45810 22772 ft 423 kts 33°
2026-05-07 15:46 48.15468 1.48293 21920 ft 421 kts 33°
2026-05-07 15:46 48.17453 1.50316 21350 ft 416 kts 33°
2026-05-07 15:47 48.19692 1.52593 20724 ft 411 kts 33°
2026-05-07 15:47 48.22011 1.54950 20088 ft 406 kts 33°
2026-05-07 15:47 48.24316 1.57293 19448 ft 401 kts 33°
2026-05-07 15:47 48.26227 1.59237 18920 ft 396 kts 33°
2026-05-07 15:48 48.28429 1.61477 18315 ft 391 kts 33°
2026-05-07 15:48 48.30676 1.63767 17611 ft 385 kts 33°
2026-05-07 15:48 48.32521 1.65648 17034 ft 381 kts 33°
2026-05-07 15:48 48.34701 1.67872 16363 ft 376 kts 33°
2026-05-07 15:49 48.36836 1.70053 15696 ft 372 kts 33°
2026-05-07 15:49 48.38834 1.72095 15082 ft 367 kts 33°
2026-05-07 15:49 48.40698 1.74001 14471 ft 364 kts 32°
2026-05-07 15:49 48.42584 1.75931 13716 ft 366 kts 33°
2026-05-07 15:50 48.44687 1.78083 12795 ft 366 kts 33°
2026-05-07 15:50 48.46794 1.80243 11895 ft 365 kts 33°
2026-05-07 15:50 48.48889 1.82393 11020 ft 364 kts 34°
2026-05-07 15:50 48.50971 1.84532 10272 ft 359 kts 34°
2026-05-07 15:51 48.53007 1.86626 9542 ft 352 kts 34°
2026-05-07 15:51 48.55015 1.88696 8762 ft 345 kts 34°
2026-05-07 15:51 48.56943 1.90774 8007 ft 337 kts 40°
2026-05-07 15:51 48.58306 1.93257 7335 ft 332 kts 57°
2026-05-07 15:52 48.59447 1.96249 6597 ft 326 kts 60°
2026-05-07 15:52 48.60510 1.99243 5868 ft 320 kts 61°
2026-05-07 15:52 48.61538 2.02153 5308 ft 309 kts 61°
2026-05-07 15:52 48.62530 2.04951 5049 ft 291 kts 61°
2026-05-07 15:53 48.63448 2.07525 4853 ft 274 kts 61°
2026-05-07 15:53 48.64345 2.10037 4532 ft 263 kts 60°
2026-05-07 15:53 48.65181 2.12384 4101 ft 254 kts 61°
2026-05-07 15:53 48.65951 2.14557 3617 ft 244 kts 61°
2026-05-07 15:54 48.66738 2.16787 3127 ft 237 kts 61°
2026-05-07 15:54 48.67516 2.18994 2599 ft 236 kts 61°
2026-05-07 15:54 48.68269 2.21127 2102 ft 232 kts 60°
2026-05-07 15:54 48.69002 2.23201 1701 ft 225 kts 61°
2026-05-07 15:55 48.69707 2.25184 1425 ft 213 kts 61°
2026-05-07 15:55 48.70368 2.27047 1227 ft 195 kts 59°
2026-05-07 15:55 48.70967 2.28647 968 ft 174 kts 63°
2026-05-07 15:55 48.71504 2.30212 653 ft 162 kts 63°
2026-05-07 15:56 48.71987 2.31628 417 ft 152 kts 63°
2026-05-07 15:56 48.72449 2.32951 302 ft 137 kts 62°
2026-05-07 15:56 48.72788 2.33922 302 ft 57 kts 62°
2026-05-07 15:56 48.72898 2.34235 300 ft 44 kts 62°
2026-05-07 15:57 48.72996 2.34573 298 ft 33 kts 78°
2026-05-07 15:57 48.73006 2.34696 297 ft 24 kts 82°
2026-05-07 15:57 48.73010 2.34741 300 ft 1 kts 82°
2026-05-07 15:57 48.73014 2.34782 299 ft 7 kts 82°
2026-05-07 15:58 48.73023 2.34880 299 ft 13 kts 82°
2026-05-07 15:58 48.73039 2.35048 299 ft 19 kts 82°
2026-05-07 15:58 48.73035 2.35166 299 ft 12 kts 105°
2026-05-07 15:58 48.72991 2.35264 297 ft 9 kts 138°
2026-05-07 15:59 48.72989 2.35267 297 ft 0 kts 140°
2026-05-07 16:00 48.72981 2.35276 297 ft 3 kts 142°
2026-05-07 16:00 48.72961 2.35296 301 ft 4 kts 151°
2026-05-07 16:01 48.72949 2.35306 298 ft 1 kts 153°
2026-05-07 16:01 48.72933 2.35318 298 ft 4 kts 153°
2026-05-07 16:01 48.72907 2.35345 299 ft 3 kts 133°
2026-05-07 16:01 48.72901 2.35364 298 ft 1 kts 103°
2026-05-07 16:02 48.72900 2.35392 298 ft 5 kts 87°
2026-05-07 16:02 48.72904 2.35444 297 ft 4 kts 82°
2026-05-07 16:02 48.72914 2.35492 298 ft 6 kts 63°
2026-05-07 16:02 48.72950 2.35525 297 ft 6 kts
2026-05-07 16:03 48.72995 2.35545 299 ft 8 kts 27°
2026-05-07 16:03 48.73029 2.35582 299 ft 5 kts 41°
2026-05-07 16:03 48.73055 2.35612 298 ft 1 kts
2026-05-07 16:03 48.73057 2.35600 299 ft 1 kts 268°
2026-05-07 16:04 48.73024 2.35568 300 ft 11 kts 211°
2026-05-07 16:04 48.72967 2.35529 298 ft 4 kts 196°
2026-05-07 16:04 48.72960 2.35537 297 ft 2 kts 126°
2026-05-07 16:04 48.72959 2.35573 298 ft 4 kts 67°
2026-05-07 16:05 48.72969 2.35633 299 ft 6 kts 78°
2026-05-07 16:05 48.72972 2.35650 297 ft 0 kts 76°
2026-05-07 16:06 48.72969 2.35664 297 ft 0 kts 108°